Showing default

COSMOS 1910, 18789

Orbit data source: Space-Track

COSMOS 1910, 18789 is a payload satellite owned by UNKS (CIS) in LEO that was launched on Fri, 15 Jan 1988 UTC via a TSIKLON-3 launch vehicle from the Plesetsk Missile And Space Complex (PKMTR). Payload-class satellites include a variety of spacecraft equipped with specific instruments for various scientific and technological missions. These include communications satellites like Starlink; space stations such as the ISS; scientific satellites like the Hubble; Earth observation satellites from companies like Planet Labs, Umbra, and HawkEye 360; GPS; miniature CubeSats for education and research; and military/defense satellites.

Loading next visibility...
Identifier
18789, 1988-002B
Orbit
LEO
Country
Flag of CISCIS
Related business
Manufacturer
NPO PM
Mission
Defense Communications
Bus & Motor
STRELA-3, Unknown motor
Mass
225 kg wet, 225 kg dry
Launch date (UTC)
1988-01-15 (38 years ago)
Launch vehicle
TSIKLON-3
Launch site
Plesetsk Missile And Space Complex (PKMTR)
Object type
Payload
Rocket body
Debris
Shape & HBR
Cyl, 0.8 m
Radar Cross Section
1.257 m², Large (>1 m²)

Expand to show TLE details & history
Last TLE update: 18 hours ago

TLE from 18 hours ago
0 COSMOS 1910
1 18789U 88002B   25259.96681856  .00000051  00000-0  22012-3 0  9999
2 18789  82.5981  67.7900 0005067 101.6206  11.6515 12.63624302737365
Epoch: 2025-09-16T23:12Z
TLE epoch observation values (Epoch: 2025-09-16T23:12:13.123Z)
Latitude
65.71016°
Longitude
-113.05888°
Altitude
1,415.479 km
Speed
7.161 km/s
True Right ascension
15h 24m 34s
True Declination
65° 35' 31"
Sunlit
Object was in daylight at epoch
Visualization orbit readout
Latitude
Unknown
Longitude
Unknown
Altitude
Unknown
Speed
Unknown
Apparent Right ascension
Unknown
Apparent Declination
Unknown
Sunlit
N/A
Visualization observer readout
Local Sidereal Time
09:38:39
Azimuth
Unknown
Elevation
Unknown
Doppler factor
Unknown
Orbital elements
Apogee altitude
1,409.283 km
Perigee altitude
1,401.395 km
Semi-major axis
7,783.476 km
Eccentricity
0.00051
Inclination
82.5981°
RAAN
67.79°
Arg. of periapsis
101.6206°
True anomaly
11.66323°
Mean anomaly
11.6515°
Eccentric anomaly
11.65737°
Mean motion
3.1607 °/min
Orbital period
113.9 mins
BSTAR
0.00022012
Loading maneuver chart data...
Computing Atmospheric mass density...
Loading historical data...
Loading historical data...
Loading historical data...
Loading historical data...
Loading historical data...
Loading historical data...
Loading historical data...

Documentation

Showing up to 5 results
|